Tracking 29493 objects as of 8-Sep-2024
HD Live streaming from Space Station
objects crossing your sky now

FENGYUN 1C DEB

Track FENGYUN 1C DEB now!
10-day predictions


NORAD ID: 29819
Int'l Code: 1999-025DM
Perigee: 758.9 km
Apogee: 1,033.8 km
Inclination: 98.7 °
Period: 102.8 minutes
Semi major axis: 7267 km
RCS: 0.055 m2 (small)
Launch date: May 10, 1999
Source: People's Republic of China (PRC)
Launch site: Taiyaun Space Center, China (TSC)

Note: This is SATELLITE DEBRIS
Your satellite tracking list
Your tracking list is empty




NASA's NSSDC Master Catalog

Two Line Element Set (TLE):
1 29819U 99025DM  24252.54892744  .00001349  00000-0  79049-3 0  9991
2 29819  98.6947 250.4523 0189158 273.5698 204.4691 14.01331554901729
Source of the keplerian elements: AFSPC